This demonstration page uses our WeatherBlox Daily Observations layout. Learn more.

Left ArrowRight Arrow

Hourly Observations for March 29, 2021

Temp ( °F °C ) Dew Point ( °F °C ) Humidity (%) Winds ( mph kmh ) Pressure ( in mb ) Visibility ( mi km ) Precip ( " mm )
12:15 am 00:15 Clear 53 11.6 30 -1.2 41 41 SW 10 17 29.89 1012 10 16 N/A
12:35 am 00:35 Clear 51 10.8 31 -0.8 45 45 SW 7 11 29.90 1012 10 16 N/A
12:55 am 00:55 Clear 50 10.2 31 -0.4 48 48 SW 8 13 29.89 1012 10 16 N/A
1:15 am 01:15 Clear 51 10.5 32 undefined 49 49 SW 10 17 29.88 1012 10 16 N/A
1:35 am 01:35 Clear 50 9.8 32 undefined 51 51 SSW 9 15 29.87 1012 10 16 N/A
1:55 am 01:55 Clear 47 8.6 33 0.5 57 57 SSW 8 13 29.88 1012 10 16 N/A
2:15 am 02:15 Clear 47 8.4 33 0.6 58 58 SSW 9 15 29.88 1012 10 16 N/A
2:35 am 02:35 Clear 47 8.3 33 0.7 59 59 SSW 10 17 29.87 1011 10 16 N/A
2:55 am 02:55 Clear 47 8.3 33 0.8 60 60 S 10 17 29.86 1011 10 16 N/A
3:15 am 03:15 Clear 48 9 34 1 58 58 S 14 22 29.84 1011 10 16 N/A
3:35 am 03:35 Clear 48 9 33 0.8 57 57 SSW 12 19 29.83 1010 10 16 N/A
3:55 am 03:55 Clear 47 8.4 33 0.8 59 59 SW 8 13 29.83 1010 10 16 N/A
4:15 am 04:15 Clear 46 8 33 0.8 61 61 SSW 10 17 29.82 1010 10 16 N/A
4:35 am 04:35 Clear 46 8 33 0.7 60 60 S 12 19 29.81 1009 10 16 N/A
4:55 am 04:55 Clear 46 7.7 33 0.7 62 62 SSW 13 20 29.79 1009 10 16 N/A
5:15 am 05:15 Clear 46 7.9 33 0.7 61 61 SSW 13 20 29.78 1009 10 16 N/A
5:35 am 05:35 Clear 46 7.7 33 0.7 62 62 SSW 14 22 29.77 1008 10 16 N/A
5:55 am 05:55 Clear 46 7.5 33 0.7 62 62 SSW 14 22 29.76 1008 10 16 N/A
6:15 am 06:15 Clear 45 7.1 33 0.7 64 64 S 12 19 29.76 1008 10 16 N/A
6:35 am 06:35 Clear 45 7 33 0.6 64 64 S 9 15 29.75 1007 10 16 N/A
6:55 am 06:55 Clear 44 6.9 33 0.7 65 65 SSW 9 15 29.75 1007 10 16 N/A
7:15 am 07:15 Clear 43 6.3 33 0.5 67 67 S 9 15 29.75 1007 10 16 N/A
7:35 am 07:35 Sunny 43 6.2 33 0.5 67 67 S 9 15 29.74 1007 10 16 N/A
7:55 am 07:55 Sunny 43 6.1 33 0.6 68 68 S 8 13 29.73 1007 10 16 N/A
8:15 am 08:15 Sunny 44 6.6 34 0.9 67 67 S 9 15 29.72 1007 10 16 N/A
8:35 am 08:35 Sunny 45 7.4 34 1.1 65 65 S 12 19 29.72 1006 10 16 N/A
8:55 am 08:55 Sunny 47 8.3 35 1.5 63 63 S 12 19 29.70 1006 10 16 N/A
9:15 am 09:15 Sunny 48 9.1 34 1.3 58 58 S 14 22 29.68 1005 10 16 N/A
9:35 am 09:35 Sunny 50 10 35 1.5 56 56 SSW 20 31 29.66 1004 10 16 N/A
9:55 am 09:55 Sunny 51 10.4 35 1.6 55 55 SSW 17 28 29.65 1004 10 16 N/A
10:15 am 10:15 Sunny 52 11.3 35 1.7 52 52 SSW 18 30 29.63 1003 10 16 N/A
10:35 am 10:35 Sunny 55 12.5 35 1.9 49 49 S 16 26 29.61 1003 10 16 N/A
10:55 am 10:55 Sunny 57 13.8 36 2.1 45 45 S 17 28 29.59 1002 10 16 N/A
11:15 am 11:15 Sunny 59 15 36 2 42 42 SSW 14 22 29.58 1002 10 16 N/A
11:35 am 11:35 Sunny 60 15.8 36 2.1 40 40 SSW 14 22 29.55 1001 10 16 N/A
11:55 am 11:55 Sunny 62 16.6 35 1.5 36 36 SSW 10 17 29.55 1001 10 16 N/A
12:15 pm 12:15 Sunny 64 17.5 36 2.1 36 36 SSW 15 24 29.53 1000 10 16 N/A
12:35 pm 12:35 Sunny 65 18.4 36 2.1 34 34 S 16 26 29.51 999 10 16 N/A
12:55 pm 12:55 Sunny 67 19.2 36 2 32 32 S 12 19 29.48 998 10 16 N/A
1:15 pm 13:15 Sunny 70 20.9 35 1.6 28 28 S 13 20 29.46 998 10 16 N/A
1:35 pm 13:35 Sunny 72 22 35 1.5 26 26 SSW 10 17 29.43 997 10 16 N/A
1:55 pm 13:55 Sunny 74 23.1 34 0.9 23 23 S 12 19 29.41 996 10 16 N/A
2:15 pm 14:15 Sunny 75 23.9 32 -0.1 20 20 SSW 10 17 29.40 996 10 16 N/A
2:35 pm 14:35 Sunny 76 24.3 31 -0.4 20 20 SSW 10 17 29.38 995 10 16 N/A
2:55 pm 14:55 Sunny 76 24.7 34 1 21 21 S 12 19 29.38 995 10 16 N/A
3:15 pm 15:15 Sunny 78 25.4 33 0.7 20 20 S 13 20 29.36 994 10 16 N/A
3:35 pm 15:35 Sunny 79 25.9 32 -0.1 18 18 SSW 12 19 29.34 994 10 16 N/A
3:55 pm 15:55 Sunny 80 26.5 33 0.3 18 18 S 12 19 29.32 993 10 16 N/A
4:15 pm 16:15 Sunny 80 26.5 33 0.6 18 18 S 14 22 29.32 993 10 16 N/A
4:35 pm 16:35 Sunny 80 26.5 33 0.8 19 19 SSE 12 19 29.31 992 10 16 N/A
4:55 pm 16:55 Sunny 80 26.4 35 1.9 20 20 S 16 26 29.30 992 10 16 N/A
5:15 pm 17:15 Sunny 77 25.1 35 1.7 22 22 S 14 22 29.29 992 10 16 N/A
5:35 pm 17:35 Sunny 77 25 35 1.8 22 22 S 13 20 29.29 992 10 16 N/A
5:55 pm 17:55 Sunny 77 25 35 1.5 22 22 SSE 10 17 29.28 992 10 16 N/A
6:15 pm 18:15 Sunny 77 25 35 1.5 22 22 SSE 8 13 29.28 992 10 16 N/A
6:35 pm 18:35 Sunny 74 23.5 37 2.7 26 26 ESE 7 11 29.29 992 10 16 N/A
6:55 pm 18:55 Sunny 76 24.4 38 3.4 26 26 ENE 6 9 29.27 991 10 16 N/A
7:15 pm 19:15 Sunny 75 23.9 39 3.7 27 27 ENE 7 11 29.28 991 10 16 N/A
7:35 pm 19:35 Sunny 73 22.6 38 3.4 29 29 E 8 13 29.28 991 10 16 N/A
7:55 pm 19:55 Sunny 68 19.8 38 3.5 34 34 ENE 12 19 29.28 992 10 16 N/A
8:15 pm 20:15 Clear 63 17.4 38 3.5 40 40 NE 8 13 29.31 993 10 16 N/A
8:35 pm 20:35 Clear 62 16.5 39 3.8 43 43 NNE 12 19 29.33 993 10 16 N/A
8:55 pm 20:55 Clear 61 15.9 38 3.2 43 43 N 12 19 29.35 994 10 16 N/A
9:15 pm 21:15 Hazy 58 14.5 34 1 40 40 N 38 61 29.44 997 5 8 N/A
9:35 pm 21:35 Partly Cloudy 55 13 33 0.7 43 43 N 31 50 29.49 999 10 16 N/A
9:55 pm 21:55 Clear 53 11.5 28 -2.1 39 39 N 39 63 29.56 1001 10 16 N/A
10:15 pm 22:15 Clear 51 10.5 26 -3.2 38 38 N 32 52 29.58 1002 10 16 N/A
10:35 pm 22:35 Clear 50 9.8 25 -4 38 38 N 31 50 29.60 1003 10 16 N/A
10:55 pm 22:55 Clear 48 9.1 24 -4.2 39 39 N 31 50 29.64 1004 10 16 N/A
11:15 pm 23:15 Clear 48 8.8 22 -5.7 36 36 N 33 54 29.66 1005 10 16 N/A
11:35 pm 23:35 Clear 47 8.3 22 -5.4 38 38 N 24 39 29.70 1006 10 16 N/A

Powered by AerisWeather